Ellington Field, TX

4:36 AM CST on December 14, 2019 (GMT -0600)
Ellington

Weather History for KEFD - November, 2019

Change the Weather History Date:

Tuesday, November 12, 2019

  Actual Average Record
Temperature  
Mean Temperature 40 °F -  
Max Temperature 44 °F 70 °F 86 °F (2003)
Min Temperature 35 °F 53 °F 42 °F (2018)
Degree Days  
Heating Degree Days 26    
Moisture  
Dew Point 26 °F    
Average Humidity 61    
Maximum Humidity 87    
Minimum Humidity 39    
Precipitation  
Precipitation 0.00 in - - ()
Sea Level Pressure  
Sea Level Pressure 30.37 in    
Wind  
Wind Speed 14 mph ()    
Max Wind Speed 22 mph    
Max Gust Speed 30 mph    
Visibility 10.0 miles    
Events Rain    
Averages and records for this station are not official NWS values.
T = Trace of Precipitation, MM = Missing Value Source: Averaged Metar Reports

Daily Weather History Graph

Daily Weather History Graph

Search for Another Location

Airport or City:

Astronomy

Nov. 12, 2019 Rise Set
Actual Time 6:42 AM CST 5:26 PM CST
Civil Twilight 6:17 AM CST 5:51 PM CST
Nautical Twilight 5:48 AM CST 6:20 PM CST
Astronomical Twilight 5:20 AM CST 6:48 PM CST
Moon 5:52 PM CST (11/12) 6:38 AM CST (11/12)
Length of Visible Light 11h 34m
Length of Day
10h 44m
Full, 100% of the Moon is Illuminated
Nov 12
Full
Nov 19
Last Quarter
Nov 26
New
Dec 4
First Quarter
Dec 11
Full

Hourly Weather History & Observations

Time (CST) Temp. Windchill Dew Point Humidity Pressure Visibility Wind Dir Wind Speed Gust Speed Precip Events Conditions
12:50 AM 39.2 °F 29.0 °F 33.8 °F 81% 30.28 in 10.0 mi NNW 21.9 mph 29.9 mph N/A   Overcast
1:50 AM 37.4 °F 28.2 °F 32.0 °F 81% 30.30 in 10.0 mi NNW 16.1 mph 25.3 mph N/A   Overcast
2:50 AM 35.6 °F 25.5 °F 32.0 °F 87% 30.30 in 10.0 mi NNW 17.3 mph 23.0 mph N/A   Overcast
3:50 AM 35.6 °F 25.9 °F 32.0 °F 87% 30.32 in 10.0 mi NNW 16.1 mph - N/A Rain Light Rain
4:50 AM 35.6 °F 25.2 °F 30.2 °F 81% 30.36 in 10.0 mi NNW 18.4 mph 24.2 mph N/A   Overcast
5:50 AM 35.6 °F 24.8 °F 28.4 °F 75% 30.37 in 10.0 mi NNW 19.6 mph 27.6 mph N/A   Overcast
6:50 AM 35.6 °F 25.9 °F 28.4 °F 75% 30.40 in 10.0 mi NNW 16.1 mph 29.9 mph N/A   Overcast
7:50 AM 37.4 °F 27.8 °F 28.4 °F 70% 30.41 in 10.0 mi NNW 17.3 mph 29.9 mph N/A   Overcast
8:50 AM 37.4 °F 27.5 °F 26.6 °F 65% 30.44 in 10.0 mi NNW 18.4 mph 28.8 mph N/A   Mostly Cloudy
11:50 AM 37.4 °F 27.5 °F 26.6 °F 65% 30.42 in 10.0 mi NNW 18.4 mph - N/A   Mostly Cloudy
12:50 PM 42.8 °F 35.8 °F 26.6 °F 53% 30.40 in 10.0 mi NW 13.8 mph - N/A   Mostly Cloudy
1:50 PM 42.8 °F 35.8 °F 26.6 °F 53% 30.38 in 10.0 mi North 13.8 mph - N/A   Mostly Cloudy
2:50 PM 44.6 °F 37.8 °F 21.2 °F 39% 30.37 in 10.0 mi NNW 15.0 mph 23.0 mph N/A   Mostly Cloudy
3:50 PM 42.8 °F 35.8 °F 21.2 °F 42% 30.36 in 10.0 mi NNW 13.8 mph - N/A   Mostly Cloudy
4:50 PM 41.0 °F 34.7 °F 21.2 °F 45% 30.37 in 10.0 mi NNW 10.4 mph - N/A   Mostly Cloudy
5:50 PM 41.0 °F 35.2 °F 21.2 °F 45% 30.38 in 10.0 mi NNW 9.2 mph - N/A   Mostly Cloudy
6:50 PM 41.0 °F 35.2 °F 21.2 °F 45% 30.37 in 10.0 mi North 9.2 mph - N/A   Mostly Cloudy
7:50 PM 41.0 °F 34.7 °F 21.2 °F 45% 30.37 in 10.0 mi North 10.4 mph - N/A   Mostly Cloudy
8:50 PM 39.2 °F 30.8 °F 23.0 °F 52% 30.39 in 10.0 mi North 15.0 mph - N/A   Scattered Clouds
9:50 PM 39.2 °F 32.5 °F 23.0 °F 52% 30.39 in 10.0 mi NNE 10.4 mph - N/A   Scattered Clouds
10:50 PM 37.4 °F 30.8 °F 21.2 °F 52% 30.39 in 10.0 mi NNE 9.2 mph - N/A   Mostly Cloudy
11:50 PM 35.6 °F 29.9 °F 21.2 °F 56% 30.39 in 10.0 mi NNE 6.9 mph - N/A   Mostly Cloudy